Regional Weather Roundup
Issued by NWS

Home | Current Version | Previous Version | Graphics & Text | Print | Product List | Glossary On
Versions: 1 2 3 4 5 6 7 8 9 10 11 12 13 14 15 16 17 18 19 20 21 22 23 24 25 26 27 28
000
ASUS45 KTFX 031610
RWRMT
MONTANA REGIONAL WEATHER ROUNDUP
NATIONAL WEATHER SERVICE GREAT FALLS MT
900 AM MST SAT DEC 03 2016

NOTE: "FAIR" INDICATES FEW OR NO CLOUDS BELOW 12000 FEET WITH NO
SIGNIFICANT WEATHER AND/OR OBSTRUCTIONS TO VISIBILITY.

MTZ001>007-043-031700-
WEST OF THE DIVIDE

CITY           SKY/WX    TMP DP  RH WIND       PRES   REMARKS
KALISPELL      CLOUDY    30  29  96 SW6       29.98S WCI  24
MISSOULA       CLOUDY    29  28  96 NW3       30.07R
BUTTE          CLOUDY    28  20  71 N3        29.99R
MULLAN PASS    SNOW      25  23  92 VRB6      29.97S VSB 1/2 WCI  18
ANACONDA         N/A     34  19  55 SW7       29.99R WCI  28
DEER LODGE       N/A     27  25  93 N3        30.01S
EUREKA           N/A     37  27  65 SE5       29.97R
HAMILTON         N/A     37  27  65 SE6       30.06R
LIBBY            N/A     30  30 100 CALM      30.01R
PLAINS           N/A     33  29  86 CALM      30.05
RONAN            N/A     35  30  82 CALM      30.06R
$$

MTZ008-052>055-031700-
SOUTHWEST MONTANA

CITY           SKY/WX    TMP DP  RH WIND       PRES   REMARKS
BOZEMAN        CLOUDY    26  22  84 SE7       29.99S WCI  18
DILLON         CLOUDY    28  17  63 SW16      30.03R WCI  16
W YELLOWSTONE  LGT SNOW  18  14  86 SW8G16    30.09R VSB 1   WCI   7
ENNIS          CLOUDY    25  16  68 S21G29    30.09R WCI  10
$$

MTZ009-010-012-014-046-048-049-054-031700-
EAST SLOPES AND CENTRAL MONTANA

CITY           SKY/WX    TMP DP  RH WIND       PRES   REMARKS
CUT BANK       CLEAR     34  22  61 W31G38    29.80R WCI  20
GREAT FALLS    CLEAR     32  23  69 SW16      29.85R WCI  21
MALMSTROM AFB  CLEAR     32  25  74 SW16      29.85S WCI  21
HELENA         CLOUDY    36  23  59 SW6       29.96R WCI  31
AUGUSTA          N/A     35  21  57 W17G24    29.85R WCI  25
BOWMANS CRNR     N/A     32  22  66 SW23G30   29.84F WCI  19
CHOTEAU          N/A     37  19  48 W21G31    29.84S WCI  27
CONRAD           N/A     37  25  62 SW21      29.84R WCI  26
FAIRFIELD        N/A     34  20  56 SW12      29.83R WCI  26
POWER            N/A     30  22  71 SW12      29.83R WCI  21
RAYNESFORD       N/A     35  22  57 SW24G37   29.84R WCI  23
ULM              N/A     35  25  65 W13G24    29.87R WCI  26
$$

MTZ011-013-016-021-045-047-050-051-031700-
NORTH CENTRAL MONTANA

CITY           SKY/WX    TMP DP  RH WIND       PRES   REMARKS
HAVRE          CLOUDY    31  23  72 SW18      29.78R WCI  19
LEWISTOWN      CLEAR     32  20  61 W17       29.82R WCI  21
N BAR RANCH    MOCLDY    37  18  44 W14G26    29.83R WCI  29
CHINOOK          N/A     36  23  60 SW17      29.77R WCI  25
DENTON           N/A     35  22  58 SW28G40   29.78R WCI  22
GEYSER           N/A     33  21  60 W20       29.82R WCI  22
GRASS RANGE      N/A     34  22  62 W18G26    29.78R WCI  23
JUDITH GAP       N/A     31  19  62 W13G18    29.84R WCI  21
ROY              N/A     36  21  55 MISG      29.78R
STANFORD         N/A     35  21  55 W29G39    29.81R WCI  22
WINIFRED         N/A     35  22  57 MISG      29.79R
$$

MTZ017>020-022>027-061-062-031700-
NORTHEAST MONTANA

CITY           SKY/WX    TMP DP  RH WIND       PRES   REMARKS
GLASGOW        CLOUDY    32  26  78 SW8       29.74F WCI  25
JORDAN           N/A     27  21  78 CALM      29.79S
SIDNEY         CLOUDY    22  20  92 SW8       29.83F WCI  12
WOLF POINT     CLOUDY    32  27  81 SW6       29.79S WCI  26
PLENTYWOOD       N/A     25  23  93 SE9       29.77R WCI  15
POPLAR           N/A     30  27  86 SW8       29.79S WCI  23
SCOBEY           N/A     27  21  77 SE3       29.72
$$

MTZ028>42-056>058-031700-
SOUTHCENTRAL AND SOUTHEAST MONTANA

CITY           SKY/WX    TMP DP  RH WIND       PRES   REMARKS
BAKER          CLOUDY    27  17  66 SW8       29.85F WCI  19
BILLINGS       CLOUDY    34  16  47 SW13      29.89R WCI  25
LIVINGSTON     CLOUDY    34  15  46 W21G29    29.94S WCI  22
MILES CITY     PTSUNNY   25  19  78 S10       29.84S WCI  15
BIG TIMBER     CLEAR     36  16  44 W26G39    29.89S WCI  23
EKALAKA          N/A     28  17  63 SW9       29.84  WCI  19
FORSYTH          N/A     36  19  51 SW5       29.85R
HARLOWTON        N/A     33  21  61 W29G37    29.83F WCI  19
LAUREL           N/A     34  11  38 SW7       29.89R WCI  28
ROUNDUP          N/A     37  17  44 SW20      29.78R WCI  26
$$

REGIONAL REPORTS...DAKOTAS

CITY           SKY/WX    TMP DP  RH WIND       PRES   REMARKS
WILLISTON      CLOUDY    23  18  81 S6        29.83S WCI  16
MINOT          SUNNY     24  20  84 SE10G21   29.88F WCI  14
DICKINSON      SUNNY     17  14  88 S12       29.83F WCI   4
BEACH            N/A     23  19  86 SW10      29.86F WCI  12
CROSBY         PTSUNNY   23  19  86 S13       29.81S WCI  11
TIOGA            N/A     23  23 100 S15       29.82F WCI  10
WATFORD CITY     N/A     23  18  80 CALM      29.83F
BISMARCK       CLOUDY    23  23 100 S15       29.98F FOG     WCI  10
GRAND FORKS    CLOUDY    28  22  78 S16       30.14F WCI  16
FARGO          CLOUDY    28  19  69 S17       30.19F WCI  16
BUFFALO SD       N/A     18  15  88 W3        29.81S
RAPID CITY     SUNNY     25  20  81 CALM      29.88F
$$

REGIONAL REPORTS...WYOMING/IDAHO/WASHINGTON

CITY           SKY/WX    TMP DP  RH WIND       PRES   REMARKS
GILLETTE       CLOUDY    28  14  55 W9        29.91R WCI  19
SHERIDAN       MOSUNNY   31  21  66 S6        29.90R WCI  25
BUFFALO WY     CLOUDY    33  13  43 NE3       29.89S
CODY           SUNNY     32   9  38 W25G39    29.92S WCI  19
YELLOWSTONE LA   N/A     13   9  84 W6        30.06R WCI   4
IDAHO FALLS    PTSUNNY   27  19  72 SW15      30.19S WCI  15
SALMON         CLOUDY    27  25  93 CALM      30.13R
BOISE          CLOUDY    34  26  72 CALM      30.26R
SPOKANE        PTCLDY    33  30  88 SW15      30.09S WCI  23
$$

REGIONAL REPORTS...ALBERTA

CITY           SKY/WX    TMP DP  RH WIND       PRES   REMARKS
EDMONTON       PTCLDY    25  21  86 W7        29.68S WCI  17
CALGARY        PTCLDY    36  14  41 W14G21    29.73R WCI  27
LETHBRIDGE     PTCLDY    37  21  52 W24G31    29.78R WCI  26
MEDICINE HAT   MOCLDY    34  23  64 SW7       29.74R WCI  28
WATERTON GATE    N/A     34  21  60 SW17G23     N/A  WCI  23
CARDSTON         N/A     34  18  51 W8          N/A  WCI  27
MILK RIVER       N/A     34  21  60 W18         N/A  WCI  23
$$

REGIONAL REPORTS...SASKATCHEWAN

CITY           SKY/WX    TMP DP  RH WIND       PRES   REMARKS
SWIFT CURRENT  CLOUDY    28  25  86 W18       29.63R WCI  16
REGINA         FLURRIES  23  21  93 SE12      29.69S WCI  12
SASKATOON      MOCLDY    23  21  93 N3        29.68R
CYPRESS HILLS    N/A     27  25  93 NW13G22     N/A  WCI  16
VAL MARIE        N/A     34  25  69 W12         N/A  WCI  25
ROCKGLEN         N/A     30  28  93 SW15        N/A  WCI  19
ASSINIBOIA       N/A     27  25  93 S6          N/A  WCI  20
$$




USA.gov is the U.S. government's official web portal to all federal, state and local government web resources and services.